Weather in Toledo

Philippines     10°23′30″N   123°39′00″E
temp.,
°C
wind,
m/s
gust,
m/s
humid.,
%
clouds,
%
prec.,
mm/h
press.,
hPa
HPBL,
m
5 december, sun
sun523:00+22ne47898 0.0 1013273
02:00+22nne469051 0.0 1011287
05:00+21ne369319 0.1 1011234
08:00+24ne5884100 0.2 1013672
11:00+26nne6774100 0.3 10111088
14:00+26nne7874100 0.8 10091133
17:00+24nne598185 0.2 1009523
20:00+22nne4888100 0.4 1012339
6 december, mon
mon623:00+22nne4788100 0.1 1011310
02:00+22ne4789100 0.1 1009314
05:00+22ne478982 0.1 1009300
08:00+25nne588124 0.2 1011788
11:00+26n787371 0.3 10101173
14:00+26n9107995 0.5 10071027
17:00+24nne71184100 0.3 1008756
20:00+24nne61187100 0.3 1010687
7 december, tue
tue723:00+24nne61291100 0.6 1010793
02:00+23n61095100 3.8 1008700
05:00+23n61092100 1.4 1008734
08:00+24n61091100 2.1 1010764
11:00+24n61095100 1.4 1009734
14:00+24n61194100 5.4 10081020
17:00+24n71393100 3.4 1008837
20:00+24nne61095100 6.0 1010606
8 december, wed
wed823:00+24nne4793100 3.9 1010422
02:00+23nne3696100 6.4 1008317
05:00+23ne3594100 1.8 1009241
08:00+24ne359094 1.9 1011262
11:00+29nne456499 0.0 10101105
14:00+28n556893 0.1 10081064
17:00+25nne3587100 0.4 1009227
20:00+24ne359076 0.6 1011189
9 december, thu
thu923:00+23ne36935 0.9 1011193
02:00+23ne359475 1.6 1010177
05:00+24ne3894100 1.5 1010353
08:00+25ne51189100 3.3 1011759
11:00+26nne6108664 4.3 1010867
14:00+26nne51089100 9.4 1008795
17:00+25ne51091100 4.0 1009622
20:00+24ne3794100 4.8 1011319